Date,Installs,Update checks
2020-09-13,5,1
2020-09-14,1,1
2020-09-15,0,4
2020-09-16,5,4
2020-09-17,0,4
2020-09-18,4,4
2020-09-19,0,6
2020-09-20,1,3
2020-09-21,1,3
2020-09-22,0,2
2020-09-23,1,5
2020-09-24,1,6
2020-09-25,3,7
2020-09-26,2,7
2020-09-27,2,13
2020-09-28,1,12
2020-09-29,0,10
2020-09-30,0,8
2020-10-01,1,8
2020-10-02,1,10
2020-10-03,1,10
2020-10-04,0,7
2020-10-05,0,9
2020-10-06,0,7
2020-10-07,0,6
2020-10-08,0,7
2020-10-09,0,11
2020-10-10,0,10
2020-10-11,0,10
2020-10-12,0,8
2020-10-13,0,7
2020-10-14,0,10
2020-10-15,0,7
2020-10-16,1,9
2020-10-17,0,13
2020-10-18,1,9
2020-10-19,1,10
2020-10-20,1,9
2020-10-21,1,7
2020-10-22,1,10
2020-10-23,3,14
2020-10-24,3,9
2020-10-25,1,10
2020-10-26,2,14
2020-10-27,1,8
2020-10-28,1,14
2020-10-29,2,12
2020-10-30,0,14
2020-10-31,0,11
2020-11-01,2,15
2020-11-02,5,14
2020-11-03,3,20
2020-11-04,3,14
2020-11-05,0,23
2020-11-06,1,21
2020-11-07,1,21
2020-11-08,0,20
2020-11-09,0,16
2020-11-10,1,18
2020-11-11,1,18
2020-11-12,0,23
2020-11-13,0,21
2020-11-14,0,21
2020-11-15,0,21
2020-11-16,0,18
2020-11-17,0,25
2020-11-18,0,20
2020-11-19,0,20
2020-11-20,1,25
2020-11-21,0,18
2020-11-22,0,20
2020-11-23,0,21
2020-11-24,2,22
2020-11-25,0,21
2020-11-26,1,24
2020-11-27,0,23
2020-11-28,0,20
2020-11-29,0,24
2020-11-30,0,21
2020-12-01,0,24
2020-12-02,0,25
2020-12-03,0,22
2020-12-04,0,18
2020-12-05,1,25
2020-12-06,3,22
2020-12-07,0,23
2020-12-08,0,24
2020-12-09,1,22
2020-12-10,0,23
2020-12-11,0,25
2020-12-12,0,15
2020-12-13,0,22
2020-12-14,0,22
2020-12-15,0,22
2020-12-16,0,25
2020-12-17,0,18
2020-12-18,0,23
2020-12-19,0,20
2020-12-20,0,22
2020-12-21,0,20
2020-12-22,0,18
2020-12-23,0,26
2020-12-24,0,18
2020-12-25,0,25
2020-12-26,0,18
2020-12-27,0,21
2020-12-28,0,25
2020-12-29,0,18
2020-12-30,0,29
2020-12-31,1,22
2021-01-01,0,24
2021-01-02,0,25
2021-01-03,0,17
2021-01-04,0,24
2021-01-05,0,17
2021-01-06,0,25
2021-01-07,0,22
2021-01-08,0,19
2021-01-09,0,21
2021-01-10,0,22
2021-01-11,1,25
2021-01-12,0,21
2021-01-13,1,20
2021-01-14,0,21
2021-01-15,0,26
2021-01-16,0,23
2021-01-17,1,19
2021-01-18,0,21
2021-01-19,1,24
2021-01-20,0,24
2021-01-21,0,25
2021-01-22,0,24
2021-01-23,0,24
2021-01-24,0,23
2021-01-25,5,24
2021-01-26,3,22
2021-01-27,1,26
2021-01-28,1,25
2021-01-29,1,22
2021-01-30,2,20
2021-01-31,2,26
2021-02-01,0,23
2021-02-02,0,26
2021-02-03,3,26
2021-02-04,10,33
2021-02-05,2,41
2021-02-06,0,47
2021-02-07,0,44
2021-02-08,0,42
2021-02-09,1,41
2021-02-10,0,35
2021-02-11,0,39
2021-02-12,0,40
2021-02-13,0,42
2021-02-14,0,22
2021-02-15,0,52
2021-02-16,0,38
2021-02-17,0,47
2021-02-18,0,43
2021-02-19,0,48
2021-02-20,1,41
2021-02-21,0,47
2021-02-22,2,41
2021-02-23,0,53
2021-02-24,0,41
2021-02-25,0,48
2021-02-26,1,41
2021-02-27,1,52
2021-02-28,0,50
2021-03-01,0,46
2021-03-02,1,58
2021-03-03,1,47
2021-03-04,1,56
2021-03-05,0,52
2021-03-06,1,44
2021-03-07,1,44
2021-03-08,0,41
2021-03-09,1,41
2021-03-10,0,32
2021-03-11,5,41
2021-03-12,3,43
2021-03-13,1,40
2021-03-14,0,31
2021-03-15,1,46
2021-03-16,0,51
2021-03-17,1,46
2021-03-18,0,40
2021-03-19,0,37
2021-03-20,2,49
2021-03-21,2,32
2021-03-22,0,47
2021-03-23,2,41
2021-03-24,0,38
2021-03-25,1,46
2021-03-26,1,36
2021-03-27,0,36
2021-03-28,0,41
2021-03-29,4,37
2021-03-30,2,44
2021-03-31,1,32
2021-04-01,1,42
2021-04-02,4,30
2021-04-03,0,43
2021-04-04,0,46
2021-04-05,2,34
2021-04-06,2,51
2021-04-07,2,39
2021-04-08,0,51
2021-04-09,0,46
2021-04-10,2,42
2021-04-11,0,41
2021-04-12,0,31
2021-04-13,0,44
2021-04-14,0,43
2021-04-15,1,41
2021-04-16,5,68
2021-04-17,2,75
2021-04-18,4,62
2021-04-19,1,61
2021-04-20,1,68
2021-04-21,2,62
2021-04-22,3,59
2021-04-23,0,74
2021-04-24,3,59
2021-04-25,0,69
2021-04-26,0,65
2021-04-27,0,65
2021-04-28,0,70
2021-04-29,0,68
2021-04-30,3,70
2021-05-01,3,54
2021-05-02,3,70
2021-05-03,1,60
2021-05-04,0,66
2021-05-05,0,58
2021-05-06,0,55
2021-05-07,0,70
2021-05-08,1,61
2021-05-09,2,66
2021-05-10,2,64
2021-05-11,0,64
2021-05-12,0,62
2021-05-13,0,67
2021-05-14,4,66
2021-05-15,2,71
2021-05-16,4,72
2021-05-17,2,68
2021-05-18,2,84
2021-05-19,2,73
2021-05-20,2,71
2021-05-21,4,73
2021-05-22,0,83
2021-05-23,0,75
2021-05-24,2,76
2021-05-25,1,72
2021-05-26,3,73
2021-05-27,1,83
2021-05-28,1,76
2021-05-29,0,79
2021-05-30,1,77
2021-05-31,2,79
2021-06-01,3,80
2021-06-02,1,82
2021-06-03,4,75
2021-06-04,1,73
2021-06-05,6,50
2021-06-06,3,78
2021-06-07,0,85
2021-06-08,2,81
2021-06-09,2,79
2021-06-10,0,73
2021-06-11,1,90
2021-06-12,0,84
2021-06-13,1,92
2021-06-14,1,92
2021-06-15,1,81
2021-06-16,0,90
2021-06-17,1,94
2021-06-18,2,78
2021-06-19,0,91
2021-06-20,1,85
2021-06-21,0,83
2021-06-22,2,94
2021-06-23,3,88
2021-06-24,1,88
2021-06-25,1,87
2021-06-26,1,91
2021-06-27,0,92
2021-06-28,2,89
2021-06-29,3,91
2021-06-30,2,91
2021-07-01,3,90
2021-07-02,1,98
2021-07-03,0,92
2021-07-04,0,83
2021-07-05,1,92
2021-07-06,2,83
2021-07-07,1,100
2021-07-08,3,84
2021-07-09,0,89
2021-07-10,1,87
2021-07-11,2,91
2021-07-12,1,86
2021-07-13,0,88
2021-07-14,4,93
2021-07-15,3,99
2021-07-16,1,84
2021-07-17,0,91
2021-07-18,1,7
2021-07-19,1,36
2021-07-20,0,97
2021-07-21,1,82
2021-07-22,1,94
2021-07-23,1,85
2021-07-24,4,86
2021-07-25,0,95
2021-07-26,3,91
2021-07-27,2,94
2021-07-28,3,106
2021-07-29,0,97
2021-07-30,0,95
2021-07-31,0,100
2021-08-01,2,86
2021-08-02,1,91
2021-08-03,2,91
2021-08-04,0,101
2021-08-05,4,99
2021-08-06,2,91
2021-08-07,2,108
2021-08-08,1,102
2021-08-09,3,95
2021-08-10,1,91
2021-08-11,1,95
2021-08-12,1,99
2021-08-13,0,103
2021-08-14,0,99
2021-08-15,1,89
2021-08-16,2,102
2021-08-17,2,104
2021-08-18,2,96
2021-08-19,0,96
2021-08-20,0,102
2021-08-21,0,93
2021-08-22,0,100
2021-08-23,1,104
2021-08-24,0,105
2021-08-25,1,95
2021-08-26,2,102
2021-08-27,1,100
2021-08-28,4,106
2021-08-29,4,103
2021-08-30,3,87
2021-08-31,2,104
2021-09-01,1,92
2021-09-02,1,105
2021-09-03,0,93
2021-09-04,0,94
2021-09-05,1,93
2021-09-06,1,93
2021-09-07,1,94
2021-09-08,1,94
2021-09-09,0,109
2021-09-10,2,97
2021-09-11,2,103
2021-09-12,0,97
2021-09-13,1,93
2021-09-14,0,103
2021-09-15,0,90
2021-09-16,1,90
2021-09-17,0,100
2021-09-18,1,92
2021-09-19,2,98
2021-09-20,1,99
2021-09-21,2,98
2021-09-22,2,101
2021-09-23,3,104
2021-09-24,2,106
2021-09-25,1,106
2021-09-26,1,99
2021-09-27,1,103
2021-09-28,3,108
2021-09-29,0,98
2021-09-30,0,102
2021-10-01,0,95
2021-10-02,0,100
2021-10-03,0,111
2021-10-04,1,105
2021-10-05,4,106
2021-10-06,3,113
2021-10-07,0,101
2021-10-08,0,107
2021-10-09,0,94
2021-10-10,1,106
2021-10-11,2,105
2021-10-12,0,105
2021-10-13,0,114
2021-10-14,4,109
2021-10-15,5,103
2021-10-16,1,109
2021-10-17,2,114
2021-10-18,0,111
2021-10-19,1,104
2021-10-20,1,105
2021-10-21,1,116
2021-10-22,20,109
2021-10-23,5,121
2021-10-24,4,111
2021-10-25,7,111
2021-10-26,2,121
2021-10-27,3,122
2021-10-28,2,127
2021-10-29,2,130
2021-10-30,1,132
2021-10-31,0,127
2021-11-01,1,128
2021-11-02,3,132
2021-11-03,2,126
2021-11-04,1,138
2021-11-05,2,129
2021-11-06,2,118
2021-11-07,4,141
2021-11-08,1,132
2021-11-09,0,128
2021-11-10,0,128
2021-11-11,0,138
2021-11-12,1,129
2021-11-13,2,131
2021-11-14,2,123
2021-11-15,2,133
2021-11-16,4,132
2021-11-17,0,133
2021-11-18,0,142
2021-11-19,0,127
2021-11-20,0,133
2021-11-21,4,128
2021-11-22,4,126
2021-11-23,2,132
2021-11-24,4,138
2021-11-25,3,136
2021-11-26,1,137
2021-11-27,0,118
2021-11-28,0,144
2021-11-29,0,123
2021-11-30,0,138
2021-12-01,2,126
2021-12-02,0,143
2021-12-03,2,136
2021-12-04,4,136
2021-12-05,3,126
2021-12-06,3,125
2021-12-07,1,131
2021-12-08,0,134
2021-12-09,0,122
2021-12-10,2,134
2021-12-11,2,125
2021-12-12,0,120
2021-12-13,0,129
2021-12-14,0,129
2021-12-15,0,122
2021-12-16,0,126
2021-12-17,2,123
2021-12-18,1,123
2021-12-19,0,128
2021-12-20,3,135
2021-12-21,2,124
2021-12-22,3,129
2021-12-23,3,128
2021-12-24,3,127
2021-12-25,0,110
2021-12-26,0,123
2021-12-27,0,132
2021-12-28,0,127
2021-12-29,2,121
2021-12-30,1,123
2021-12-31,3,114
2022-01-01,1,121
2022-01-02,2,130
2022-01-03,1,117
2022-01-04,0,132
2022-01-05,0,125
2022-01-06,1,131
2022-01-07,0,123
2022-01-08,1,134
2022-01-09,4,10
2022-01-10,0,0
2022-01-11,2,125
2022-01-12,2,131
2022-01-13,3,116
2022-01-14,2,132
2022-01-15,3,137
2022-01-16,4,128
2022-01-17,2,123
2022-01-18,2,142
2022-01-19,2,128
2022-01-20,2,126
2022-01-21,2,135
2022-01-22,5,126
2022-01-23,2,130
2022-01-24,1,123
2022-01-25,1,141
2022-01-26,2,147
2022-01-27,4,131
2022-01-28,1,148
2022-01-29,0,133
2022-01-30,2,132
2022-01-31,1,146
2022-02-01,2,139
2022-02-02,0,142
2022-02-03,1,148
2022-02-04,3,141
2022-02-05,1,147
2022-02-06,1,142
2022-02-07,0,143
2022-02-08,0,143
2022-02-09,1,135
2022-02-10,1,133
2022-02-11,2,141
2022-02-12,0,132
2022-02-13,0,137
2022-02-14,0,145
2022-02-15,2,134
2022-02-16,2,131
2022-02-17,1,129
2022-02-18,1,123
2022-02-19,1,132
2022-02-20,0,129
2022-02-21,0,119
2022-02-22,0,141
2022-02-23,4,128
2022-02-24,0,131
2022-02-25,0,122
2022-02-26,1,129
2022-02-27,3,131
2022-02-28,0,133
2022-03-01,1,130
2022-03-02,0,115
2022-03-03,0,125
2022-03-04,1,122
2022-03-05,4,127
2022-03-06,1,130
2022-03-07,0,129
2022-03-08,1,120
2022-03-09,0,133
2022-03-10,1,127
2022-03-11,0,123
2022-03-12,0,129
2022-03-13,0,126
2022-03-14,2,121
2022-03-15,2,130
2022-03-16,2,135
2022-03-17,1,129
2022-03-18,1,127
2022-03-19,1,126
2022-03-20,0,118
2022-03-21,0,140
2022-03-22,0,134
2022-03-23,2,136
2022-03-24,1,138
2022-03-25,0,132
2022-03-26,0,128
2022-03-27,2,127
2022-03-28,1,127
2022-03-29,1,131
2022-03-30,2,131
2022-03-31,0,138
2022-04-01,8,137
2022-04-02,3,130
2022-04-03,2,145
2022-04-04,0,119
2022-04-05,0,131
2022-04-06,1,135
2022-04-07,2,137
2022-04-08,4,139
2022-04-09,1,129
2022-04-10,0,147
2022-04-11,0,136
2022-04-12,0,134
2022-04-13,1,140
2022-04-14,0,126
2022-04-15,0,135
2022-04-16,0,125
2022-04-17,0,119
2022-04-18,1,135
2022-04-19,0,132
2022-04-20,0,141
2022-04-21,0,123
2022-04-22,0,132
2022-04-23,1,132
2022-04-24,0,127
2022-04-25,2,139
2022-04-26,3,141
2022-04-27,0,135
2022-04-28,0,142
2022-04-29,0,133
2022-04-30,0,135
2022-05-01,2,137
2022-05-02,1,129
2022-05-03,1,137
2022-05-04,6,146
2022-05-05,4,132
2022-05-06,0,139
2022-05-07,0,147
2022-05-08,0,119
2022-05-09,0,145
2022-05-10,1,143
2022-05-11,0,148
2022-05-12,0,150
2022-05-13,2,151
2022-05-14,1,143
2022-05-15,1,134
2022-05-16,1,127
2022-05-17,0,148
2022-05-18,0,143
2022-05-19,3,145
2022-05-20,3,137
2022-05-21,0,152
2022-05-22,2,132
2022-05-23,0,134
2022-05-24,2,123
2022-05-25,0,129
2022-05-26,0,142
2022-05-27,1,133
2022-05-28,1,141
2022-05-29,0,140
2022-05-30,2,133
2022-05-31,1,145
2022-06-01,0,139
2022-06-02,5,139
2022-06-03,1,134
2022-06-04,0,136
2022-06-05,2,127
2022-06-06,0,131
2022-06-07,0,140
2022-06-08,0,133
2022-06-09,1,137
2022-06-10,6,138
2022-06-11,1,131
2022-06-12,0,136
2022-06-13,3,138
2022-06-14,0,136
2022-06-15,2,126
2022-06-16,0,147
2022-06-17,1,133
2022-06-18,4,144
2022-06-19,0,136
2022-06-20,1,138
2022-06-21,1,138
2022-06-22,2,140
2022-06-23,0,140
2022-06-24,0,140
2022-06-25,1,130
2022-06-26,1,142
2022-06-27,1,137
2022-06-28,0,144
2022-06-29,0,137
2022-06-30,0,135
2022-07-01,0,143
2022-07-02,0,139
2022-07-03,0,138
2022-07-04,0,145
2022-07-05,1,136
2022-07-06,1,136
2022-07-07,0,140
2022-07-08,0,138
2022-07-09,1,135
2022-07-10,2,139
2022-07-11,3,130
2022-07-12,2,147
2022-07-13,2,134
2022-07-14,0,147
2022-07-15,0,138
2022-07-16,0,140
2022-07-17,0,146
2022-07-18,0,141
2022-07-19,0,123
2022-07-20,0,143
2022-07-21,1,146
2022-07-22,3,126
2022-07-23,1,134
2022-07-24,0,128
2022-07-25,2,139
2022-07-26,1,141
2022-07-27,1,134
2022-07-28,0,139
2022-07-29,0,147
2022-07-30,0,117
2022-07-31,0,143
2022-08-01,2,142
2022-08-02,1,144
2022-08-03,0,141
2022-08-04,0,145
2022-08-05,0,143
2022-08-06,3,149
2022-08-07,0,132
2022-08-08,0,143
2022-08-09,0,138
2022-08-10,1,142
2022-08-11,0,138
2022-08-12,0,147
2022-08-13,1,136
2022-08-14,2,139
2022-08-15,3,138
2022-08-16,0,147
2022-08-17,0,151
2022-08-18,0,135
2022-08-19,1,150
2022-08-20,4,131
2022-08-21,1,143
2022-08-22,0,140
2022-08-23,0,137
2022-08-24,0,135
2022-08-25,0,150
2022-08-26,0,138
2022-08-27,3,143
2022-08-28,2,136
2022-08-29,1,145
2022-08-30,2,136
2022-08-31,2,131
2022-09-01,2,131
2022-09-02,1,148
2022-09-03,0,146
2022-09-04,0,139
2022-09-05,0,141
2022-09-06,0,145
2022-09-07,0,136
2022-09-08,0,137
2022-09-09,0,143
2022-09-10,0,142
2022-09-11,1,143
2022-09-12,2,146
2022-09-13,0,142
2022-09-14,1,141
2022-09-15,0,144
2022-09-16,0,134
2022-09-17,0,141
2022-09-18,0,138
2022-09-19,0,135
2022-09-20,1,145
2022-09-21,0,144
2022-09-22,0,142
2022-09-23,0,142
2022-09-24,1,145
2022-09-25,0,135
2022-09-26,0,133
2022-09-27,0,138
2022-09-28,1,155
2022-09-29,0,144
2022-09-30,0,149
2022-10-01,3,147
2022-10-02,2,146
2022-10-03,0,149
2022-10-04,0,141
2022-10-05,1,142
2022-10-06,0,143
2022-10-07,1,127
2022-10-08,1,130
2022-10-09,1,144
2022-10-10,0,143
2022-10-11,0,136
2022-10-12,0,134
2022-10-13,1,151
2022-10-14,0,146
2022-10-15,0,138
2022-10-16,0,129
2022-10-17,0,135
2022-10-18,0,142
2022-10-19,0,144
2022-10-20,1,137
2022-10-21,0,141
2022-10-22,0,140
2022-10-23,0,141
2022-10-24,0,136
2022-10-25,1,152
2022-10-26,0,142
2022-10-27,1,141
2022-10-28,1,135
2022-10-29,1,126
2022-10-30,1,144
2022-10-31,1,133
2022-11-01,0,149
2022-11-02,13,135
2022-11-03,5,145
2022-11-04,3,148
2022-11-05,3,152
2022-11-06,1,148
2022-11-07,0,153
2022-11-08,2,149
2022-11-09,0,138
2022-11-10,0,157
2022-11-11,1,152
2022-11-12,1,150
2022-11-13,1,143
2022-11-14,0,141
2022-11-15,0,137
2022-11-16,0,154
2022-11-17,0,116
2022-11-18,1,128
2022-11-19,0,124
2022-11-20,1,138
2022-11-21,0,130
2022-11-22,1,144
2022-11-23,0,141
2022-11-24,0,143
2022-11-25,0,145
2022-11-26,1,130
2022-11-27,0,143
2022-11-28,0,124
2022-11-29,0,150
2022-11-30,0,122
2022-12-01,0,140
2022-12-02,1,129
2022-12-03,0,146
2022-12-04,0,131
2022-12-05,0,129
2022-12-06,2,125
2022-12-07,1,130
2022-12-08,0,142
2022-12-09,1,140
2022-12-10,1,132
2022-12-11,0,131
2022-12-12,0,131
2022-12-13,0,129
2022-12-14,0,118
2022-12-15,0,125
2022-12-16,2,122
2022-12-17,1,129
2022-12-18,3,125
2022-12-19,0,126
2022-12-20,0,110
2022-12-21,0,116
2022-12-22,0,118
2022-12-23,0,137
2022-12-24,0,128
2022-12-25,1,119
2022-12-26,1,133
2022-12-27,0,126
2022-12-28,0,127
2022-12-29,0,116
2022-12-30,0,125
2022-12-31,1,110
2023-01-01,2,119
2023-01-02,0,140
2023-01-03,0,142
2023-01-04,2,154
2023-01-05,1,147
2023-01-06,1,143
2023-01-07,1,145
2023-01-08,1,150
2023-01-09,2,141
2023-01-10,1,143
2023-01-11,1,148
2023-01-12,2,149
2023-01-13,1,150
2023-01-14,0,151
2023-01-15,1,139
2023-01-16,0,151
2023-01-17,0,138
2023-01-18,1,149
2023-01-19,1,134
2023-01-20,1,142
2023-01-21,0,123
2023-01-22,0,131
2023-01-23,1,134
2023-01-24,0,140
2023-01-25,1,136
2023-01-26,2,141
2023-01-27,1,137
2023-01-28,0,149
2023-01-29,1,141
2023-01-30,0,136
2023-01-31,0,151
2023-02-01,1,127
2023-02-02,2,143
2023-02-03,2,130
2023-02-04,1,139
2023-02-05,0,155
2023-02-06,2,137
2023-02-07,0,157
2023-02-08,0,140
2023-02-09,0,155
2023-02-10,1,153
2023-02-11,0,145
2023-02-12,0,147
2023-02-13,0,146
2023-02-14,0,147
2023-02-15,0,145
2023-02-16,0,157
2023-02-17,0,148
2023-02-18,0,140
2023-02-19,0,151
2023-02-20,0,144
2023-02-21,1,153
2023-02-22,1,146
2023-02-23,2,151
2023-02-24,1,159
2023-02-25,2,147
2023-02-26,1,155
2023-02-27,1,157
2023-02-28,1,163
2023-03-01,0,134
2023-03-02,0,154
2023-03-03,0,150
2023-03-04,0,140
2023-03-05,0,133
2023-03-06,0,156
2023-03-07,0,138
2023-03-08,1,146
2023-03-09,0,137
2023-03-10,0,156
2023-03-11,0,148
2023-03-12,0,143
2023-03-13,0,144
2023-03-14,1,147
2023-03-15,0,140
2023-03-16,1,150
2023-03-17,0,149
2023-03-18,1,149
2023-03-19,0,131
2023-03-20,2,132
2023-03-21,0,150
2023-03-22,0,136
2023-03-23,0,157
2023-03-24,1,151
2023-03-25,1,150
2023-03-26,1,153
2023-03-27,0,143
2023-03-28,2,145
2023-03-29,0,143
2023-03-30,2,144
2023-03-31,0,152
2023-04-01,0,156
2023-04-02,3,136
2023-04-03,6,145
2023-04-04,4,147
2023-04-05,2,150
2023-04-06,3,143
2023-04-07,4,150
2023-04-08,6,153
2023-04-09,1,142
2023-04-10,4,160
2023-04-11,2,152
2023-04-12,1,156
2023-04-13,5,158
2023-04-14,2,137
2023-04-15,3,153
2023-04-16,3,153
2023-04-17,0,152
2023-04-18,2,165
2023-04-19,4,167
2023-04-20,2,157
2023-04-21,2,164
2023-04-22,2,141
2023-04-23,2,148
2023-04-24,1,167
2023-04-25,1,159
2023-04-26,0,165
2023-04-27,1,156
2023-04-28,2,167
2023-04-29,0,156
2023-04-30,0,159
2023-05-01,4,157
2023-05-02,2,168
2023-05-03,2,177
2023-05-04,3,153
2023-05-05,0,157
2023-05-06,3,164
2023-05-07,0,159
2023-05-08,1,159
2023-05-09,1,167
2023-05-10,1,151
2023-05-11,1,155
2023-05-12,0,174
2023-05-13,0,149
2023-05-14,0,172
2023-05-15,0,162
2023-05-16,0,163
2023-05-17,0,169
2023-05-18,0,171
2023-05-19,1,162
2023-05-20,0,180
2023-05-21,1,168
2023-05-22,0,151
2023-05-23,0,158
2023-05-24,1,167
2023-05-25,1,159
2023-05-26,0,177
2023-05-27,0,168
2023-05-28,0,153
2023-05-29,0,172
2023-05-30,1,158
2023-05-31,1,172
2023-06-01,0,162
2023-06-02,0,159
2023-06-03,1,149
2023-06-04,1,164
2023-06-05,0,151
2023-06-06,0,157
2023-06-07,1,156
2023-06-08,2,170
2023-06-09,0,172
2023-06-10,2,164
2023-06-11,0,166
2023-06-12,0,174
2023-06-13,1,170
2023-06-14,1,172
2023-06-15,0,168
2023-06-16,0,166
2023-06-17,0,159
2023-06-18,0,170
2023-06-19,2,169
2023-06-20,0,154
2023-06-21,0,166
2023-06-22,1,164
2023-06-23,2,159
2023-06-24,0,155
2023-06-25,0,164
2023-06-26,0,165
2023-06-27,1,172
2023-06-28,0,153
2023-06-29,1,167
2023-06-30,1,154
2023-07-01,0,157
2023-07-02,0,160
2023-07-03,1,170
2023-07-04,1,159
2023-07-05,0,164
2023-07-06,0,156
2023-07-07,0,162
2023-07-08,1,138
2023-07-09,1,163
2023-07-10,0,166
2023-07-11,0,159
2023-07-12,1,154
2023-07-13,0,154
2023-07-14,0,148
2023-07-15,0,165
2023-07-16,0,153
2023-07-17,1,169
2023-07-18,0,157
2023-07-19,0,157
2023-07-20,0,162
2023-07-21,0,160
2023-07-22,1,154
2023-07-23,2,154
2023-07-24,0,155
2023-07-25,0,156
2023-07-26,1,163
2023-07-27,0,160
2023-07-28,0,157
2023-07-29,3,172
2023-07-30,2,150
2023-07-31,2,177
2023-08-01,0,162
2023-08-02,4,163
2023-08-03,1,158
2023-08-04,1,161
2023-08-05,3,161
2023-08-06,0,156
2023-08-07,2,161
2023-08-08,2,163
2023-08-09,0,164
2023-08-10,4,156
2023-08-11,4,158
2023-08-12,5,155
2023-08-13,6,162
2023-08-14,6,160
2023-08-15,1,171
2023-08-16,1,173
2023-08-17,2,161
2023-08-18,0,169
2023-08-19,5,160
2023-08-20,3,157
2023-08-21,2,162
2023-08-22,1,170
2023-08-23,2,171
2023-08-24,4,177
2023-08-25,1,161
2023-08-26,0,184
2023-08-27,1,179
2023-08-28,1,159
2023-08-29,0,180
2023-08-30,1,174
2023-08-31,0,172
2023-09-01,1,160
2023-09-02,2,170
2023-09-03,0,151
2023-09-04,0,146
2023-09-05,0,144
2023-09-06,0,142
2023-09-07,0,150
2023-09-08,0,148
2023-09-09,2,136
2023-09-10,0,168
2023-09-11,1,158
2023-09-12,0,168
2023-09-13,1,175
2023-09-14,1,174
2023-09-15,3,182
2023-09-16,1,188
2023-09-17,0,183
2023-09-18,0,181
2023-09-19,2,171
2023-09-20,0,181
2023-09-21,1,172
2023-09-22,0,178
2023-09-23,0,172
2023-09-24,0,169
2023-09-25,0,172
2023-09-26,2,168
2023-09-27,0,184
2023-09-28,1,178
2023-09-29,0,164
2023-09-30,1,174
2023-10-01,1,183
2023-10-02,0,170
2023-10-03,1,155
2023-10-04,0,187
2023-10-05,0,167
2023-10-06,2,178
2023-10-07,2,153
2023-10-08,2,176
2023-10-09,0,167
2023-10-10,1,174
2023-10-11,0,183
2023-10-12,0,172
2023-10-13,0,175
2023-10-14,0,170
2023-10-15,0,176
2023-10-16,0,176
2023-10-17,0,182
2023-10-18,5,176
2023-10-19,2,167
2023-10-20,0,173
2023-10-21,1,169
2023-10-22,1,183
2023-10-23,2,178
2023-10-24,0,176
2023-10-25,0,170
2023-10-26,1,181
2023-10-27,1,177
2023-10-28,3,160
2023-10-29,2,177
2023-10-30,10,171
2023-10-31,4,170
2023-11-01,7,181
2023-11-02,3,175
2023-11-03,0,160
2023-11-04,3,176
2023-11-05,3,168
2023-11-06,7,176
2023-11-07,6,156
2023-11-08,1,171
2023-11-09,3,183
2023-11-10,1,174
2023-11-11,2,183
2023-11-12,2,168
2023-11-13,0,184
2023-11-14,2,173
2023-11-15,1,168
2023-11-16,0,193
2023-11-17,0,152
2023-11-18,5,167
2023-11-19,2,170
2023-11-20,1,167
2023-11-21,1,172
2023-11-22,0,175
2023-11-23,2,175
2023-11-24,1,182
2023-11-25,1,179
2023-11-26,2,170
2023-11-27,1,173
2023-11-28,0,172
2023-11-29,2,180
2023-11-30,1,171
2023-12-01,0,194
2023-12-02,0,179
2023-12-03,1,175
2023-12-04,1,171
2023-12-05,1,107
2023-12-06,2,132
2023-12-07,1,122
2023-12-08,1,190
2023-12-09,0,137
2023-12-10,1,125
2023-12-11,0,119
2023-12-12,0,132
2023-12-13,0,113
2023-12-14,3,125
2023-12-15,1,124
2023-12-16,1,124
2023-12-17,2,121
2023-12-18,0,117
2023-12-19,0,124
2023-12-20,0,112
2023-12-21,0,123
2023-12-22,0,110
2023-12-23,0,106
2023-12-24,0,114
2023-12-25,1,93
2023-12-26,2,120
2023-12-27,2,107
2023-12-28,0,102
2023-12-29,1,112
2023-12-30,1,114
2023-12-31,1,111
2024-01-01,15,143
2024-01-02,5,133
2024-01-03,7,152
2024-01-04,6,166
2024-01-05,2,161
2024-01-06,3,157
2024-01-07,7,169
2024-01-08,4,187
2024-01-09,5,167
2024-01-10,8,189
2024-01-11,8,203
2024-01-12,4,194
2024-01-13,3,187
2024-01-14,2,186
2024-01-15,2,194
2024-01-16,1,205
2024-01-17,1,206
2024-01-18,9,206
2024-01-19,2,221
2024-01-20,1,209
2024-01-21,0,203
2024-01-22,2,220
2024-01-23,3,253
2024-01-24,0,243
2024-01-25,0,242
2024-01-26,0,247
2024-01-27,0,244
2024-01-28,2,247
2024-01-29,2,252
2024-01-30,0,253
2024-01-31,1,268
2024-02-01,2,243
2024-02-02,1,247
2024-02-03,1,239
2024-02-04,0,249
2024-02-05,1,248
2024-02-06,1,246
2024-02-07,2,223
2024-02-08,1,247
2024-02-09,1,254
2024-02-10,3,242
2024-02-11,2,237
2024-02-12,3,251
2024-02-13,1,234
2024-02-14,0,250
2024-02-15,0,246
2024-02-16,1,247
2024-02-17,1,240
2024-02-18,1,244
2024-02-19,0,228
2024-02-20,0,255
2024-02-21,0,238
2024-02-22,3,256
2024-02-23,2,260
2024-02-24,1,228
2024-02-25,1,247
2024-02-26,1,244
2024-02-27,1,240
2024-02-28,1,235
2024-02-29,1,231
2024-03-01,2,265
2024-03-02,1,249
2024-03-03,0,258
2024-03-04,0,238
2024-03-05,0,239
2024-03-06,0,254
2024-03-07,0,245
2024-03-08,0,248
2024-03-09,1,256
2024-03-10,0,258
2024-03-11,0,252
2024-03-12,0,241
2024-03-13,0,254
2024-03-14,0,252
2024-03-15,0,238
2024-03-16,0,256
2024-03-17,4,252
2024-03-18,1,235
2024-03-19,0,249
2024-03-20,1,258
2024-03-21,1,240
2024-03-22,1,253
2024-03-23,0,230
2024-03-24,2,259
2024-03-25,1,244
2024-03-26,0,236
2024-03-27,1,242
2024-03-28,1,249
2024-03-29,1,254
2024-03-30,0,258
2024-03-31,0,256
2024-04-01,1,250
2024-04-02,1,252
2024-04-03,2,255
2024-04-04,0,254
2024-04-05,0,243
2024-04-06,0,259
2024-04-07,0,239
2024-04-08,1,236
2024-04-09,0,229
2024-04-10,5,258
2024-04-11,1,233
2024-04-12,0,271
2024-04-13,1,254
2024-04-14,0,264
2024-04-15,1,249
2024-04-16,0,245
2024-04-17,0,266
2024-04-18,0,246
2024-04-19,0,257
2024-04-20,0,256
2024-04-21,1,266
2024-04-22,0,252
2024-04-23,2,253
2024-04-24,2,254
2024-04-25,1,261
2024-04-26,0,244
2024-04-27,0,259
2024-04-28,0,247
2024-04-29,0,252
2024-04-30,0,258
2024-05-01,1,246
2024-05-02,2,265
2024-05-03,0,269
2024-05-04,1,265
2024-05-05,1,249
2024-05-06,0,253
2024-05-07,0,263
2024-05-08,0,90
